Newberry, MI

2:53 PM EDT on August 18, 2017 (GMT -0400)
Luce County

Weather History for KERY - May, 2014

Change the Weather History Date:

Thursday, May 15, 2014

  Actual Average Record
Temperature  
Mean Temperature 36 °F -  
Max Temperature 41 °F 63 °F 86 °F (1998)
Min Temperature 32 °F 40 °F 25 °F (1921)
Degree Days  
Heating Degree Days 28    
Moisture  
Dew Point 33 °F    
Average Humidity 89    
Maximum Humidity 100    
Minimum Humidity 75    
Precipitation  
Precipitation 0.00 in - - ()
Sea Level Pressure  
Sea Level Pressure 29.96 in    
Wind  
Wind Speed 8 mph (NNW)    
Max Wind Speed 21 mph    
Max Gust Speed 31 mph    
Visibility 7 miles    
Events Rain , Snow    
Averages and records for this station are not official NWS values.
T = Trace of Precipitation, MM = Missing Value Source: NWS Daily Summary

Daily Weather History Graph

Daily Weather History Graph

Search for Another Location

Airport or City:

Trip Planner

Search our weather history database for the weather conditions in past years. The results will help you decide how hot, cold, wet, or windy it might be!

Date:

Astronomy

May. 15, 2014 Rise Set
Actual Time 6:08 AM EDT 9:08 PM EDT
Civil Twilight 5:33 AM EDT 9:43 PM EDT
Nautical Twilight 4:48 AM EDT 10:29 PM EDT
Astronomical Twilight 3:53 AM EDT 11:24 PM EDT
Moon 10:15 PM EDT (5/15) 6:56 AM EDT (5/15)
Length of Visible Light 16h 10m
Length of Day
14h 59m
Full, 99% of the Moon is Illuminated
May 15
Full
May 21
Last Quarter
May 28
New
Jun 5
First Quarter
Jun 13
Full

Hourly Weather History & Observations

Time (EDT) Temp. Windchill Dew Point Humidity Pressure Visibility Wind Dir Wind Speed Gust Speed Precip Events Conditions
12:15 AM 37.4 °F 32.8 °F 31.1 °F 78% 30.15 in 10.0 mi North 5.8 mph - N/A   Scattered Clouds
12:34 AM 37.0 °F 33.3 °F 31.3 °F 80% 30.14 in 10.0 mi NNW 4.6 mph - N/A   Scattered Clouds
12:54 AM 36.9 °F 34.3 °F 31.3 °F 80% 30.14 in 10.0 mi NNW 3.5 mph - N/A   Overcast
1:15 AM 36.9 °F 32.2 °F 31.3 °F 80% 30.14 in 10.0 mi North 5.8 mph - N/A   Overcast
1:35 AM 36.5 °F 32.7 °F 31.8 °F 83% 30.13 in 10.0 mi North 4.6 mph - N/A   Overcast
1:55 AM 36.7 °F 32.0 °F 31.6 °F 82% 30.11 in 10.0 mi North 5.8 mph - N/A   Overcast
2:15 AM 36.9 °F 33.1 °F 31.6 °F 81% 30.11 in 10.0 mi North 4.6 mph - N/A   Overcast
2:34 AM 36.9 °F 33.1 °F 31.5 °F 81% 30.11 in 10.0 mi North 4.6 mph - N/A   Overcast
2:55 AM 37.0 °F 33.3 °F 30.7 °F 78% 30.11 in 10.0 mi North 4.6 mph - N/A   Overcast
3:15 AM 37.0 °F 32.4 °F 30.2 °F 76% 30.10 in 10.0 mi NNW 5.8 mph - N/A   Overcast
3:34 AM 37.0 °F 31.6 °F 29.8 °F 75% 30.08 in 10.0 mi North 6.9 mph - N/A   Overcast
3:55 AM 37.0 °F 30.4 °F 29.8 °F 75% 30.07 in 10.0 mi North 9.2 mph - N/A   Overcast
4:15 AM 36.9 °F 33.1 °F 30.0 °F 76% 30.06 in 10.0 mi NNW 4.6 mph - N/A   Overcast
4:35 AM 36.9 °F 30.7 °F 29.7 °F 75% 30.04 in 10.0 mi NNW 8.1 mph - N/A   Overcast
4:55 AM 36.7 °F 31.2 °F 29.7 °F 76% 30.04 in 10.0 mi North 6.9 mph - N/A   Overcast
5:15 AM 36.5 °F 31.0 °F 30.0 °F 77% 30.03 in 10.0 mi NNW 6.9 mph - N/A   Overcast
5:35 AM 36.5 °F 31.0 °F 30.2 °F 78% 30.02 in 10.0 mi NNW 6.9 mph - N/A   Overcast
5:55 AM 36.1 °F 30.6 °F 30.2 °F 79% 30.01 in 10.0 mi North 6.9 mph - N/A   Overcast
6:14 AM 36.0 °F 31.1 °F 30.2 °F 80% 30.02 in 10.0 mi North 5.8 mph - N/A   Overcast
6:35 AM 36.0 °F 30.3 °F 30.4 °F 80% 30.01 in 10.0 mi North 6.9 mph - N/A   Overcast
6:55 AM 36.0 °F 32.1 °F 31.1 °F 82% 30.01 in 10.0 mi North 4.6 mph - N/A   Overcast
7:14 AM 36.0 °F 30.3 °F 31.5 °F 84% 30.00 in 10.0 mi North 6.9 mph - N/A   Overcast
7:35 AM 36.3 °F 31.6 °F 31.6 °F 83% 30.00 in 10.0 mi NNE 5.8 mph - N/A   Overcast
7:55 AM 36.7 °F 32.0 °F 31.8 °F 83% 29.98 in 10.0 mi North 5.8 mph - N/A   Overcast
8:15 AM 37.0 °F 34.5 °F 32.0 °F 82% 29.99 in 10.0 mi North 3.5 mph - N/A   Overcast
8:35 AM 37.6 °F 34.0 °F 32.2 °F 81% 29.99 in 10.0 mi North 4.6 mph - N/A Rain Light Rain
8:54 AM 37.9 °F 32.7 °F 33.3 °F 83% 29.97 in 10.0 mi North 6.9 mph - N/A Rain Light Rain
9:15 AM 38.3 °F 33.9 °F 34.2 °F 85% 29.98 in 10.0 mi North 5.8 mph - N/A Rain Light Rain
9:35 AM 38.3 °F 32.5 °F 34.7 °F 87% 29.96 in 10.0 mi North 8.1 mph - N/A   Overcast
9:54 AM 38.7 °F 32.9 °F 35.8 °F 89% 29.96 in 7.0 mi NNE 8.1 mph - N/A Rain Light Rain
10:15 AM 39.4 °F 32.7 °F 36.9 °F 91% 29.94 in 10.0 mi NNE 10.4 mph - N/A Rain Light Rain
10:35 AM 39.6 °F 32.5 °F 37.2 °F 91% 29.94 in 10.0 mi NNE 11.5 mph - N/A Rain Light Rain
10:55 AM 39.9 °F 31.4 °F 37.4 °F 91% 29.93 in 10.0 mi NNE 16.1 mph 20.7 mph N/A   Overcast
11:15 AM 40.3 °F 33.0 °F 37.4 °F 89% 29.92 in 10.0 mi North 12.7 mph 19.6 mph N/A   Overcast
11:35 AM 41.5 °F 33.2 °F 37.6 °F 86% 29.90 in 10.0 mi North 17.3 mph 23.0 mph N/A   Overcast
11:55 AM 41.2 °F 33.4 °F 37.6 °F 87% 29.89 in 10.0 mi North 15.0 mph 24.2 mph N/A   Overcast
12:15 PM 40.8 °F 32.9 °F 36.7 °F 85% 29.89 in 7.0 mi North 15.0 mph 24.2 mph N/A   Overcast
12:34 PM 40.3 °F 31.6 °F 36.5 °F 86% 29.87 in 10.0 mi North 17.3 mph 23.0 mph N/A   Overcast
12:55 PM 40.1 °F 32.4 °F 36.3 °F 86% 29.87 in 10.0 mi North 13.8 mph 19.6 mph N/A   Overcast
1:15 PM 39.2 °F 32.0 °F 35.8 °F 88% 29.87 in 10.0 mi North 11.5 mph 20.7 mph N/A   Overcast
1:35 PM 38.5 °F 29.6 °F 35.8 °F 90% 29.87 in 5.0 mi NNW 16.1 mph 21.9 mph N/A   Overcast
1:55 PM 37.4 °F 27.5 °F 35.6 °F 93% 29.86 in 1.8 mi NNW 18.4 mph 24.2 mph N/A   Overcast
2:14 PM 36.9 °F 26.8 °F 35.4 °F 95% 29.85 in 1.8 mi North 18.4 mph 27.6 mph N/A   Overcast
3:15 PM 35.6 °F 25.9 °F 34.2 °F 94% 29.87 in 2.0 mi NNW 16.1 mph 26.5 mph N/A   Overcast
3:34 PM 35.1 °F 25.2 °F 33.8 °F 95% 29.87 in 2.0 mi North 16.1 mph 26.5 mph N/A   Overcast
3:55 PM 34.9 °F 24.6 °F 33.8 °F 96% 29.86 in 2.5 mi NNW 17.3 mph 25.3 mph N/A   Overcast
4:15 PM 34.7 °F 24.7 °F 33.6 °F 96% 29.86 in 2.0 mi North 16.1 mph 24.2 mph N/A   Overcast
4:34 PM 34.9 °F 23.6 °F 33.6 °F 95% 29.86 in 2.5 mi NNW 20.7 mph 31.1 mph N/A   Overcast
4:55 PM 34.7 °F 25.5 °F 33.3 °F 94% 29.86 in 2.5 mi North 13.8 mph 27.6 mph N/A   Overcast
5:15 PM 34.7 °F 24.3 °F 33.4 °F 95% 29.86 in 1.8 mi NNW 17.3 mph 27.6 mph N/A   Overcast
5:35 PM 34.2 °F 24.8 °F 33.1 °F 96% 29.87 in 1.5 mi NNW 13.8 mph 25.3 mph N/A   Overcast
5:55 PM 33.8 °F 24.8 °F 32.7 °F 96% 29.87 in 2.0 mi NNW 12.7 mph 23.0 mph N/A Snow Light Snow
6:14 PM 33.8 °F 24.3 °F 32.9 °F 96% 29.87 in 2.5 mi NNW 13.8 mph 23.0 mph N/A Snow Light Snow
6:35 PM 33.6 °F 23.3 °F 32.7 °F 96% 29.87 in 2.5 mi NNW 16.1 mph 20.7 mph N/A Snow Light Snow
6:55 PM 33.3 °F 24.6 °F 32.4 °F 96% 29.87 in 3.0 mi NNW 11.5 mph 20.7 mph N/A Rain Light Rain
7:15 PM 33.1 °F 24.9 °F 32.2 °F 96% 29.88 in 3.0 mi NNW 10.4 mph 21.9 mph N/A Snow Light Snow
7:35 PM 32.9 °F 24.7 °F 32.2 °F 97% 29.89 in 2.5 mi NNW 10.4 mph 19.6 mph N/A Snow Light Snow
7:55 PM 32.4 °F 24.6 °F 32.0 °F 99% 29.91 in 1.5 mi NNW 9.2 mph 18.4 mph N/A Snow Light Snow
8:15 PM 32.2 °F 25.0 °F 32.0 °F 99% 29.91 in 1.5 mi NNW 8.1 mph - N/A Snow Light Snow
8:34 PM 32.0 °F 23.6 °F 32.0 °F 100% 29.91 in 1.5 mi NNW 10.4 mph 17.3 mph N/A Snow Light Snow
8:55 PM 32.0 °F 23.0 °F 32.0 °F 100% 29.91 in 1.2 mi NW 11.5 mph 17.3 mph N/A Snow Light Snow
9:15 PM 32.0 °F 24.8 °F 31.8 °F 99% 29.91 in 1.8 mi NNW 8.1 mph 17.3 mph N/A Snow Light Snow
9:35 PM 32.0 °F 24.2 °F 31.8 °F 99% 29.91 in 3.0 mi NW 9.2 mph 16.1 mph N/A Snow Light Snow
9:54 PM 32.2 °F 23.8 °F 31.8 °F 99% 29.91 in 5.0 mi NNW 10.4 mph 18.4 mph N/A Snow Light Snow
10:15 PM 32.2 °F 23.2 °F 32.0 °F 99% 29.91 in 7.0 mi NNW 11.5 mph 17.3 mph N/A   Overcast
10:35 PM 32.0 °F 23.0 °F 32.0 °F 100% 29.91 in 2.5 mi NNW 11.5 mph 18.4 mph N/A Snow Light Snow
10:54 PM 32.0 °F 24.2 °F 31.8 °F 99% 29.91 in 3.0 mi NNW 9.2 mph 20.7 mph N/A   Overcast
11:15 PM 32.2 °F 24.4 °F 31.8 °F 99% 29.92 in 4.0 mi NNW 9.2 mph 17.3 mph N/A   Overcast
11:35 PM 32.2 °F 24.4 °F 32.0 °F 99% 29.92 in 4.0 mi NNW 9.2 mph 16.1 mph N/A   Overcast
11:54 PM 32.2 °F 23.8 °F 32.0 °F 99% 29.92 in 4.0 mi NNW 10.4 mph 18.4 mph N/A   Overcast